Date String (YYYY-MM-DD hh:mm:ss) UTC,Instrument flags,absolute air pressure of the measurement (hPa),sample flow rate (lpm),inlet stack bypass flow (lpm),air temperature of the measurement (°C),ambient temperature measured by the external sensor (°C),aerosol sample conditioner tube jacket temperature (°C),OPC LED temperature (°C),internal box temperature (°C),relative humidity of the measurement (%),span deviation,mass concentration of particles derived from Lorenz-Mie calculation of OPC scattering (μg/m³),mass concentration of particles derived from Lorenz-Mie calculation of OPC scattering (μg/m³),mass concentration of particles derived from Lorenz-Mie calculation of OPC scattering (μg/m³)
DateTimeUTC,F1_M11,P_M11,Q1_M11,Q2_M11,T1_M11,T2_M11,T3_M11,T4_M11,T5_M11,U1_M11,ZSPAN_M11,X2_M11,X0_M11,X1_M11
2023-09-25 14:00:00,SystemResetWarning,0836.6,5.01,000.00,028.1,026.7,000.0,036.4,029.8,11.0,0000.0,0003.66,0006.45,0003.18
2023-09-25 14:01:00,SystemResetWarning,0836.6,5.00,000.00,028.1,026.7,000.0,036.4,029.7,11.5,0000.0,0003.65,0006.34,0003.18
2023-09-25 14:02:00,SystemResetWarning,0836.6,5.00,000.00,028.2,026.7,000.0,036.4,029.7,11.3,0000.0,0003.66,0006.73,0003.19
2023-09-25 14:03:00,SystemResetWarning,0836.6,5.00,000.00,028.2,026.7,000.0,036.5,029.7,11.4,0000.0,0003.70,0007.57,0003.19
2023-09-25 14:04:00,SystemResetWarning,0836.6,5.00,000.00,028.2,026.7,000.0,036.5,029.7,11.7,0000.0,0003.70,0008.08,0003.19
2023-09-25 14:05:00,SystemResetWarning,0836.6,5.00,000.00,028.2,026.7,000.0,036.5,029.7,11.8,0000.0,0003.70,0008.09,0003.18
2023-09-25 14:06:00,SystemResetWarning,0836.6,5.01,000.00,028.2,026.7,000.0,036.5,029.8,12.2,0000.0,0003.70,0008.06,0003.18
2023-09-25 14:07:00,SystemResetWarning,0836.7,5.00,000.00,028.2,026.7,000.0,036.5,029.8,12.1,0000.0,0003.66,0007.88,0003.17
2023-09-25 14:08:00,SystemResetWarning,0836.6,5.00,000.00,028.2,026.8,000.0,036.5,029.8,11.8,0000.0,0003.61,0007.69,0003.16
2023-09-25 14:09:00,SystemResetWarning,0836.7,5.00,000.00,028.2,026.8,000.0,036.5,029.8,11.7,0000.0,0003.58,0007.66,0003.15
2023-09-25 14:10:00,SystemResetWarning,0836.7,5.00,000.00,028.2,026.8,000.0,036.5,029.8,11.8,0000.0,0003.58,0007.69,0003.14
2023-09-25 14:11:00,SystemResetWarning,0836.8,4.99,000.00,028.2,026.8,000.0,036.5,029.9,11.5,0000.0,0003.54,0007.63,0003.13
2023-09-25 14:12:00,SystemResetWarning,0836.8,4.99,000.00,028.2,026.8,000.0,036.5,029.9,11.3,0000.0,0003.53,0007.87,0003.12
2023-09-25 14:13:00,SystemResetWarning,0836.7,5.00,000.00,028.2,026.9,000.0,036.5,029.9,11.2,0000.0,0003.48,0007.94,0003.11
2023-09-25 14:14:00,SystemResetWarning,0836.7,5.01,000.00,028.3,026.9,000.0,036.5,029.9,11.2,0000.0,0003.45,0007.76,0003.10
2023-09-25 14:15:00,SystemResetWarning,0836.7,5.01,000.00,028.3,026.9,000.0,036.5,029.9,11.4,0000.0,0003.42,0007.26,0003.10
2023-09-25 14:16:00,SystemResetWarning,0836.7,5.00,000.00,028.3,026.9,000.0,036.5,029.9,11.6,0000.0,0003.40,0007.70,0003.10
2023-09-25 14:17:00,SystemResetWarning,0836.7,5.00,000.00,028.3,026.9,000.0,036.5,029.9,11.3,0000.0,0003.36,0007.61,0003.09
2023-09-25 14:18:00,SystemResetWarning,0836.7,5.00,000.00,028.3,026.9,000.0,036.5,029.9,11.2,0000.0,0003.37,0007.65,0003.08
2023-09-25 14:19:00,SystemResetWarning,0836.7,5.00,000.00,028.3,027.0,000.0,036.6,029.9,11.4,0000.0,0003.39,0007.68,0003.09
2023-09-25 14:20:00,SystemResetWarning,0836.8,5.00,000.00,028.3,027.0,000.0,036.6,029.9,11.6,0000.0,0003.39,0007.58,0003.09
2023-09-25 14:21:00,SystemResetWarning,0836.8,5.00,000.00,028.3,027.0,000.0,036.6,029.9,11.1,0000.0,0003.35,0007.48,0003.07
2023-09-25 14:22:00,SystemResetWarning,0836.8,5.00,000.00,028.3,027.0,000.0,036.6,030.0,11.3,0000.0,0003.35,0007.55,0003.08
2023-09-25 14:23:00,SystemResetWarning,0836.8,5.00,000.00,028.3,027.0,000.0,036.6,030.0,11.2,0000.0,0003.36,0007.42,0003.09
2023-09-25 14:24:00,SystemResetWarning,0836.8,5.00,000.00,028.4,027.0,000.0,036.6,030.0,10.8,0000.0,0003.38,0007.07,0003.09
2023-09-25 14:25:00,SystemResetWarning,0836.8,4.99,000.00,028.4,027.0,000.0,036.6,030.0,10.6,0000.0,0003.37,0006.62,0003.09
2023-09-25 14:26:00,SystemResetWarning,0836.8,5.00,000.00,028.4,027.1,000.0,036.6,030.0,10.7,0000.0,0003.38,0007.29,0003.10
2023-09-25 14:27:00,SystemResetWarning,0836.8,5.00,000.00,028.4,027.1,000.0,036.6,030.0,10.9,0000.0,0003.40,0007.46,0003.10
2023-09-25 14:28:00,SystemResetWarning,0836.7,5.00,000.00,028.4,027.1,000.0,036.6,030.1,11.0,0000.0,0003.44,0007.76,0003.11
2023-09-25 14:29:00,SystemResetWarning,0836.8,5.01,000.00,028.4,027.1,000.0,036.6,030.1,10.7,0000.0,0003.46,0007.85,0003.11
2023-09-25 14:30:00,SystemResetWarning,0836.8,5.01,000.00,028.4,027.1,000.0,036.7,030.1,10.9,0000.0,0003.46,0008.13,0003.11
2023-09-25 14:31:00,SystemResetWarning,0836.8,5.01,000.00,028.5,027.2,000.0,036.7,030.1,10.8,0000.0,0003.46,0008.32,0003.10
2023-09-25 14:32:00,SystemResetWarning,0836.8,4.99,000.00,028.5,027.2,000.0,036.7,030.1,11.2,0000.0,0003.54,0008.49,0003.11
2023-09-25 14:33:00,SystemResetWarning,0836.8,4.99,000.00,028.5,027.2,000.0,036.7,030.1,11.1,0000.0,0003.57,0008.52,0003.11
2023-09-25 14:34:00,SystemResetWarning,0836.8,4.99,000.00,028.5,027.2,000.0,036.7,030.2,11.1,0000.0,0003.56,0008.33,0003.10
2023-09-25 14:35:00,SystemResetWarning,0836.9,5.00,000.00,028.5,027.2,000.0,036.7,030.2,11.2,0000.0,0003.54,0008.27,0003.10
2023-09-25 14:36:00,SystemResetWarning,0836.8,5.01,000.00,028.5,027.2,000.0,036.7,030.2,11.2,0000.0,0003.55,0008.45,0003.10
2023-09-25 14:37:00,SystemResetWarning,0836.8,5.00,000.00,028.5,027.3,000.0,036.7,030.2,11.1,0000.0,0003.55,0007.90,0003.10
2023-09-25 14:38:00,SystemResetWarning,0836.9,5.00,000.00,028.6,027.3,000.0,036.8,030.2,11.1,0000.0,0003.51,0007.26,0003.08
2023-09-25 14:39:00,SystemResetWarning,0836.9,5.01,000.00,028.6,027.3,000.0,036.8,030.2,11.1,0000.0,0003.47,0007.05,0003.05
2023-09-25 14:40:00,SystemResetWarning,0836.9,4.99,000.00,028.6,027.3,000.0,036.8,030.2,11.2,0000.0,0003.46,0007.01,0003.05
2023-09-25 14:41:00,SystemResetWarning,0836.9,4.99,000.00,028.6,027.3,000.0,036.8,030.2,11.3,0000.0,0003.45,0006.45,0003.05
2023-09-25 14:42:00,SystemResetWarning,0836.9,5.01,000.00,028.6,027.3,000.0,036.8,030.2,11.1,0000.0,0003.48,0006.27,0003.06
2023-09-25 14:43:00,SystemResetWarning,0836.9,5.01,000.00,028.6,027.4,000.0,036.8,030.3,11.1,0000.0,0003.45,0006.56,0003.07
2023-09-25 14:44:00,SystemResetWarning,0837.0,4.99,000.00,028.6,027.4,000.0,036.8,030.3,11.4,0000.0,0003.45,0007.13,0003.07
2023-09-25 14:45:00,SystemResetWarning,0837.0,4.99,000.00,028.7,027.4,000.0,036.9,030.3,12.7,0000.0,0003.45,0008.01,0003.07
2023-09-25 14:46:00,SystemResetWarning,0837.0,5.00,000.00,028.7,027.4,000.0,036.9,030.3,12.8,0000.0,0003.45,0008.62,0003.06
2023-09-25 14:47:00,SystemResetWarning,0837.0,5.00,000.00,028.7,027.4,000.0,036.9,030.3,12.5,0000.0,0003.45,0008.51,0003.06
2023-09-25 14:48:00,SystemResetWarning,0837.0,5.01,000.00,028.7,027.5,000.0,036.9,030.4,13.2,0000.0,0003.44,0008.23,0003.05
2023-09-25 14:49:00,SystemResetWarning,0837.0,5.00,000.00,028.7,027.5,000.0,036.9,030.4,13.1,0000.0,0003.47,0008.36,0003.05
2023-09-25 14:50:00,SystemResetWarning,0837.0,5.00,000.00,028.7,027.5,000.0,036.9,030.4,13.0,0000.0,0003.50,0008.36,0003.06
2023-09-25 14:51:00,SystemResetWarning,0837.0,5.00,000.00,028.8,027.5,000.0,036.9,030.4,13.2,0000.0,0003.53,0008.39,0003.07
2023-09-25 14:52:00,SystemResetWarning,0837.0,5.00,000.00,028.8,027.5,000.0,037.0,030.4,13.5,0000.0,0003.56,0009.24,0003.08
2023-09-25 14:53:00,SystemResetWarning,0836.9,5.00,000.00,028.8,027.5,000.0,037.0,030.5,13.7,0000.0,0003.56,0009.55,0003.08
2023-09-25 14:54:00,SystemResetWarning,0836.9,5.00,000.00,028.8,027.6,000.0,037.0,030.5,13.7,0000.0,0003.55,0009.30,0003.08
2023-09-25 14:55:00,SystemResetWarning,0837.0,5.00,000.00,028.8,027.6,000.0,037.0,030.5,13.9,0000.0,0003.55,0009.02,0003.09
2023-09-25 14:56:00,SystemResetWarning,0836.9,5.00,000.00,028.8,027.6,000.0,037.0,030.5,13.6,0000.0,0003.54,0008.39,0003.09
2023-09-25 14:57:00,SystemResetWarning,0837.0,5.00,000.00,028.9,027.6,000.0,037.0,030.5,13.7,0000.0,0003.53,0007.86,0003.09
2023-09-25 14:58:00,SystemResetWarning,0837.0,4.99,000.00,028.9,027.6,000.0,037.0,030.5,13.8,0000.0,0003.53,0007.75,0003.10
2023-09-25 14:59:00,SystemResetWarning,0837.0,4.99,000.00,028.9,027.6,000.0,037.1,030.5,13.6,0000.0,0003.54,0007.78,0003.10
